Year,Month,Day,Hour,Minute,Value (Times are PST for temperature in C)
2022,04,27,00,00,31.40
2022,04,27,00,01,31.30
2022,04,27,00,02,31.30
2022,04,27,00,03,31.30
2022,04,27,00,04,31.30
2022,04,27,00,05,31.30
2022,04,27,00,06,31.30
2022,04,27,00,07,31.20
2022,04,27,00,08,31.20
2022,04,27,00,09,31.20
2022,04,27,00,10,31.10
2022,04,27,00,11,31.10
2022,04,27,00,12,31.10
2022,04,27,00,13,31.10
2022,04,27,00,14,31.00
2022,04,27,00,15,31.00
2022,04,27,00,16,31.00
2022,04,27,00,17,30.90
2022,04,27,00,18,30.90
2022,04,27,00,19,30.90
2022,04,27,00,20,30.90
2022,04,27,00,21,30.90
2022,04,27,00,22,30.90
2022,04,27,00,23,30.80
2022,04,27,00,24,30.80
2022,04,27,00,25,30.80
2022,04,27,00,26,30.80
2022,04,27,00,27,30.80
2022,04,27,00,28,30.80
2022,04,27,00,29,30.80
2022,04,27,00,30,30.80
2022,04,27,00,31,30.80
2022,04,27,00,32,30.70
2022,04,27,00,33,30.70
2022,04,27,00,34,30.70
2022,04,27,00,35,30.70
2022,04,27,00,36,30.70
2022,04,27,00,37,30.70
2022,04,27,00,38,30.70
2022,04,27,00,39,30.70
2022,04,27,00,40,30.70
2022,04,27,00,41,30.70
2022,04,27,00,42,30.70
2022,04,27,00,43,30.70
2022,04,27,00,44,30.70
2022,04,27,00,45,30.70
2022,04,27,00,46,30.70
2022,04,27,00,47,30.80
2022,04,27,00,48,30.90
2022,04,27,00,49,31.00
2022,04,27,00,50,31.10
2022,04,27,00,51,31.30
2022,04,27,00,52,31.40
2022,04,27,00,53,31.50
2022,04,27,00,54,31.60
2022,04,27,00,55,31.60
2022,04,27,00,56,31.70
2022,04,27,00,57,31.70
2022,04,27,00,58,31.80
2022,04,27,00,59,31.80
2022,04,27,01,00,31.80
2022,04,27,01,01,31.80
2022,04,27,01,02,31.80
2022,04,27,01,03,31.80
2022,04,27,01,04,31.80
2022,04,27,01,05,31.90
2022,04,27,01,06,31.90
2022,04,27,01,07,31.90
2022,04,27,01,08,31.90
2022,04,27,01,09,31.90
2022,04,27,01,10,31.90
2022,04,27,01,11,32.00
2022,04,27,01,12,32.00
2022,04,27,01,13,31.90
2022,04,27,01,14,31.90
2022,04,27,01,15,31.90
2022,04,27,01,16,31.90
2022,04,27,01,17,32.00
2022,04,27,01,18,32.00
2022,04,27,01,19,31.90
2022,04,27,01,20,31.90
2022,04,27,01,21,31.90
2022,04,27,01,22,31.90
2022,04,27,01,23,31.90
2022,04,27,01,24,31.80
2022,04,27,01,25,31.80
2022,04,27,01,26,31.80
2022,04,27,01,27,31.70
2022,04,27,01,28,31.60
2022,04,27,01,29,31.50
2022,04,27,01,30,31.50
2022,04,27,01,31,31.40
2022,04,27,01,32,31.40
2022,04,27,01,33,31.30
2022,04,27,01,34,31.30
2022,04,27,01,35,31.30
2022,04,27,01,36,31.20
2022,04,27,01,37,31.20
2022,04,27,01,38,31.30
2022,04,27,01,39,31.30
2022,04,27,01,40,31.30
2022,04,27,01,41,31.30
2022,04,27,01,42,31.40
2022,04,27,01,43,31.40
2022,04,27,01,44,31.30
2022,04,27,01,45,31.40
2022,04,27,01,46,31.30
2022,04,27,01,47,31.30
2022,04,27,01,48,31.30
2022,04,27,01,49,31.30
2022,04,27,01,50,31.40
2022,04,27,01,51,31.40
2022,04,27,01,52,31.40
2022,04,27,01,53,31.40
2022,04,27,01,54,31.40
2022,04,27,01,55,31.40
2022,04,27,01,56,31.40
2022,04,27,01,57,31.30
2022,04,27,01,58,31.30
2022,04,27,01,59,31.30
2022,04,27,02,00,31.30
2022,04,27,02,01,31.30
2022,04,27,02,02,31.30
2022,04,27,02,03,31.30
2022,04,27,02,04,31.30
2022,04,27,02,05,31.30
2022,04,27,02,06,31.30
2022,04,27,02,07,31.20
2022,04,27,02,08,31.20
2022,04,27,02,09,31.20
2022,04,27,02,10,31.20
2022,04,27,02,11,31.20
2022,04,27,02,12,31.20
2022,04,27,02,13,31.20
2022,04,27,02,14,31.20
2022,04,27,02,15,31.20
2022,04,27,02,16,31.10
2022,04,27,02,17,31.10
2022,04,27,02,18,31.10
2022,04,27,02,19,31.10
2022,04,27,02,20,31.10
2022,04,27,02,21,31.20
2022,04,27,02,22,31.20
2022,04,27,02,23,31.20
2022,04,27,02,24,31.20
2022,04,27,02,25,31.10
2022,04,27,02,26,31.10
2022,04,27,02,27,31.10
2022,04,27,02,28,31.10
2022,04,27,02,29,31.10
2022,04,27,02,30,31.10
2022,04,27,02,31,31.10
2022,04,27,02,32,31.10
2022,04,27,02,33,31.00
2022,04,27,02,34,31.00
2022,04,27,02,35,31.00
2022,04,27,02,36,31.00
2022,04,27,02,37,31.00
2022,04,27,02,38,31.00
2022,04,27,02,39,30.90
2022,04,27,02,40,30.90
2022,04,27,02,41,30.90
2022,04,27,02,42,30.90
2022,04,27,02,43,30.90
2022,04,27,02,44,30.90
2022,04,27,02,45,30.90
2022,04,27,02,46,30.90
2022,04,27,02,47,30.90
2022,04,27,02,48,30.90
2022,04,27,02,49,30.90
2022,04,27,02,50,30.90
2022,04,27,02,51,30.90
2022,04,27,02,52,30.80
2022,04,27,02,53,30.80
2022,04,27,02,54,30.80
2022,04,27,02,55,30.80
2022,04,27,02,56,30.80
2022,04,27,02,57,30.80
2022,04,27,02,58,30.80
2022,04,27,02,59,30.90
2022,04,27,03,00,30.90
2022,04,27,03,01,30.90
2022,04,27,03,02,30.80
2022,04,27,03,03,30.80
2022,04,27,03,04,30.80
2022,04,27,03,05,30.80
2022,04,27,03,06,30.80
2022,04,27,03,07,30.70
2022,04,27,03,08,30.70
2022,04,27,03,09,30.70
2022,04,27,03,10,30.60
2022,04,27,03,11,30.60
2022,04,27,03,12,30.60
2022,04,27,03,13,30.60
2022,04,27,03,14,30.60
2022,04,27,03,15,30.60
2022,04,27,03,16,30.60
2022,04,27,03,17,30.60
2022,04,27,03,18,30.70
2022,04,27,03,19,30.70
2022,04,27,03,20,30.70
2022,04,27,03,21,30.60
2022,04,27,03,22,30.60
2022,04,27,03,23,30.60
2022,04,27,03,24,30.60
2022,04,27,03,25,30.50
2022,04,27,03,26,30.50
2022,04,27,03,27,30.40
2022,04,27,03,28,30.40
2022,04,27,03,29,30.40
2022,04,27,03,30,30.40
2022,04,27,03,31,30.30
2022,04,27,03,32,30.30
2022,04,27,03,33,30.20
2022,04,27,03,34,30.20
2022,04,27,03,35,30.20
2022,04,27,03,36,30.20
2022,04,27,03,37,30.30
2022,04,27,03,38,30.30
2022,04,27,03,39,30.30
2022,04,27,03,40,30.30
2022,04,27,03,41,30.30
2022,04,27,03,42,30.30
2022,04,27,03,43,30.40
2022,04,27,03,44,30.40
2022,04,27,03,45,30.40
2022,04,27,03,46,30.40
2022,04,27,03,47,30.40
2022,04,27,03,48,30.40
2022,04,27,03,49,30.50
2022,04,27,03,50,30.60
2022,04,27,03,51,30.60
2022,04,27,03,52,30.60
2022,04,27,03,53,30.60
2022,04,27,03,54,30.60
2022,04,27,03,55,30.60
2022,04,27,03,56,30.60
2022,04,27,03,57,30.60
2022,04,27,03,58,30.60
2022,04,27,03,59,30.60
2022,04,27,04,00,30.60
2022,04,27,04,01,30.70
2022,04,27,04,02,30.70
2022,04,27,04,03,30.70
2022,04,27,04,04,30.70
2022,04,27,04,05,30.70
2022,04,27,04,06,30.70
2022,04,27,04,07,30.70
2022,04,27,04,08,30.80
2022,04,27,04,09,30.80
2022,04,27,04,10,30.80
2022,04,27,04,11,30.80
2022,04,27,04,12,30.80
2022,04,27,04,13,30.80
2022,04,27,04,14,30.80
2022,04,27,04,15,30.80
2022,04,27,04,16,30.80
2022,04,27,04,17,30.80
2022,04,27,04,18,30.80
2022,04,27,04,19,30.80
2022,04,27,04,20,30.80
2022,04,27,04,21,30.90
2022,04,27,04,22,30.90
2022,04,27,04,23,31.00
2022,04,27,04,24,31.00
2022,04,27,04,25,31.00
2022,04,27,04,26,31.00
2022,04,27,04,27,31.10
2022,04,27,04,28,31.10
2022,04,27,04,29,31.10
2022,04,27,04,30,31.10
2022,04,27,04,31,31.10
2022,04,27,04,32,31.10
2022,04,27,04,33,31.10
2022,04,27,04,34,31.20
2022,04,27,04,35,31.20
2022,04,27,04,36,31.20
2022,04,27,04,37,31.30
2022,04,27,04,38,31.30
2022,04,27,04,39,31.30
2022,04,27,04,40,31.30
2022,04,27,04,41,31.30
2022,04,27,04,42,31.40
2022,04,27,04,43,31.40
2022,04,27,04,44,31.40
2022,04,27,04,45,31.40
2022,04,27,04,46,31.40
2022,04,27,04,47,31.40
2022,04,27,04,48,31.40
2022,04,27,04,49,31.40
2022,04,27,04,50,31.40
2022,04,27,04,51,31.50
2022,04,27,04,52,31.50
2022,04,27,04,53,31.50
2022,04,27,04,54,31.50
2022,04,27,04,55,31.50
2022,04,27,04,56,31.60
2022,04,27,04,57,31.60
2022,04,27,04,58,31.60
2022,04,27,04,59,31.60
2022,04,27,05,00,31.60
2022,04,27,05,01,31.60
2022,04,27,05,02,31.60
2022,04,27,05,03,31.60
2022,04,27,05,04,31.70
2022,04,27,05,05,31.70
2022,04,27,05,06,31.70
2022,04,27,05,07,31.70
2022,04,27,05,08,31.70
2022,04,27,05,09,31.70
2022,04,27,05,10,31.70
2022,04,27,05,11,31.70
2022,04,27,05,12,31.80
2022,04,27,05,13,31.80
2022,04,27,05,14,31.80
2022,04,27,05,15,31.80
2022,04,27,05,16,31.80
2022,04,27,05,17,31.90
2022,04,27,05,18,31.90
2022,04,27,05,19,31.90
2022,04,27,05,20,31.90
2022,04,27,05,21,31.90
2022,04,27,05,22,31.90
2022,04,27,05,23,31.90
2022,04,27,05,24,32.00
2022,04,27,05,25,32.00
2022,04,27,05,26,32.00
2022,04,27,05,27,32.10
2022,04,27,05,28,32.10
2022,04,27,05,29,32.10
2022,04,27,05,30,32.20
2022,04,27,05,31,32.20
2022,04,27,05,32,32.20
2022,04,27,05,33,32.20
2022,04,27,05,34,32.20
2022,04,27,05,35,32.20
2022,04,27,05,36,32.20
2022,04,27,05,37,32.20
2022,04,27,05,38,32.20
2022,04,27,05,39,32.20
2022,04,27,05,40,32.20
2022,04,27,05,41,32.20
2022,04,27,05,42,32.20
2022,04,27,05,43,32.20
2022,04,27,05,44,32.20
2022,04,27,05,45,32.20
2022,04,27,05,46,32.30
2022,04,27,05,47,32.30
2022,04,27,05,48,32.30
2022,04,27,05,49,32.30
2022,04,27,05,50,32.30
2022,04,27,05,51,32.30
2022,04,27,05,52,32.40
2022,04,27,05,53,32.40
2022,04,27,05,54,32.40
2022,04,27,05,55,32.40
2022,04,27,05,56,32.40
2022,04,27,05,57,32.40
2022,04,27,05,58,32.40
2022,04,27,05,59,32.50
2022,04,27,06,00,32.50
2022,04,27,06,01,32.50
2022,04,27,06,02,32.60
2022,04,27,06,03,32.60
2022,04,27,06,04,32.60
2022,04,27,06,05,32.60
2022,04,27,06,06,32.70
2022,04,27,06,07,32.70
2022,04,27,06,08,32.70
2022,04,27,06,09,32.70
2022,04,27,06,10,32.70
2022,04,27,06,11,32.80
2022,04,27,06,12,32.80
2022,04,27,06,13,32.80
2022,04,27,06,14,32.80
2022,04,27,06,15,32.80
2022,04,27,06,16,32.80
2022,04,27,06,17,32.80
2022,04,27,06,18,32.80
2022,04,27,06,19,32.80
2022,04,27,06,20,32.80
2022,04,27,06,21,32.80
2022,04,27,06,22,32.80
2022,04,27,06,23,32.80
2022,04,27,06,24,32.80
2022,04,27,06,25,32.80
2022,04,27,06,26,32.80
2022,04,27,06,27,32.80
2022,04,27,06,28,32.80
2022,04,27,06,29,32.80
2022,04,27,06,30,32.80
2022,04,27,06,31,32.80
2022,04,27,06,32,32.80
2022,04,27,06,33,32.80
2022,04,27,06,34,32.80
2022,04,27,06,35,32.80
2022,04,27,06,36,32.80
2022,04,27,06,37,32.80
2022,04,27,06,38,32.90
2022,04,27,06,39,32.90
2022,04,27,06,40,32.90
2022,04,27,06,41,32.90
2022,04,27,06,42,32.90
2022,04,27,06,43,33.00
2022,04,27,06,44,33.00
2022,04,27,06,45,33.00
2022,04,27,06,46,33.00
2022,04,27,06,47,33.10
2022,04,27,06,48,33.10
2022,04,27,06,49,33.10
2022,04,27,06,50,33.10
2022,04,27,06,51,33.10
2022,04,27,06,52,33.20
2022,04,27,06,53,33.20
2022,04,27,06,54,33.20
2022,04,27,06,55,33.20
2022,04,27,06,56,33.20
2022,04,27,06,57,33.30
2022,04,27,06,58,33.30
2022,04,27,06,59,33.30
2022,04,27,07,00,33.30
2022,04,27,07,01,33.30
2022,04,27,07,02,33.40
2022,04,27,07,03,33.40
2022,04,27,07,04,33.40
2022,04,27,07,05,33.40
2022,04,27,07,06,33.40
2022,04,27,07,07,33.50
2022,04,27,07,08,33.50
2022,04,27,07,09,33.60
2022,04,27,07,10,33.60
2022,04,27,07,11,33.60
2022,04,27,07,12,33.70
2022,04,27,07,13,33.70
2022,04,27,07,14,33.80
2022,04,27,07,15,33.90
2022,04,27,07,16,34.00
2022,04,27,07,17,34.10
2022,04,27,07,18,34.10
2022,04,27,07,19,34.20
2022,04,27,07,20,34.30
2022,04,27,07,21,34.30
2022,04,27,07,22,34.40
2022,04,27,07,23,34.50
2022,04,27,07,24,34.50
2022,04,27,07,25,34.60
2022,04,27,07,26,34.60
2022,04,27,07,27,34.70
2022,04,27,07,28,34.70
2022,04,27,07,29,34.70
2022,04,27,07,30,34.80
2022,04,27,07,31,34.80
2022,04,27,07,32,34.80
2022,04,27,07,33,34.80
2022,04,27,07,34,34.80
2022,04,27,07,35,34.80
2022,04,27,07,36,34.80
2022,04,27,07,37,34.90
2022,04,27,07,38,35.00
2022,04,27,07,39,35.00
2022,04,27,07,40,35.10
2022,04,27,07,41,35.20
2022,04,27,07,42,35.30
2022,04,27,07,43,35.40
2022,04,27,07,44,35.50
2022,04,27,07,45,35.50
2022,04,27,07,46,35.60
2022,04,27,07,47,35.70
2022,04,27,07,48,35.80
2022,04,27,07,49,35.90
2022,04,27,07,50,35.90
2022,04,27,07,51,36.00
2022,04,27,07,52,36.10
2022,04,27,07,53,36.20
2022,04,27,07,54,36.20
2022,04,27,07,55,36.30
2022,04,27,07,56,36.40
2022,04,27,07,57,36.40
2022,04,27,07,58,36.50
2022,04,27,07,59,36.50
2022,04,27,08,00,36.60
2022,04,27,08,01,36.60
2022,04,27,08,02,36.60
2022,04,27,08,03,36.60
2022,04,27,08,04,36.70
2022,04,27,08,05,36.70
2022,04,27,08,06,36.80
2022,04,27,08,07,36.90
2022,04,27,08,08,36.90
2022,04,27,08,09,36.90
2022,04,27,08,10,36.90
2022,04,27,08,11,36.90
2022,04,27,08,12,36.90
2022,04,27,08,13,36.80
2022,04,27,08,14,36.80
2022,04,27,08,15,36.80
2022,04,27,08,16,36.80
2022,04,27,08,17,36.90
2022,04,27,08,18,36.90
2022,04,27,08,19,37.00
2022,04,27,08,20,37.10
2022,04,27,08,21,37.10
2022,04,27,08,22,37.10
2022,04,27,08,23,37.20
2022,04,27,08,24,37.20
2022,04,27,08,25,37.20
2022,04,27,08,26,37.20
2022,04,27,08,27,37.30
2022,04,27,08,28,37.30
2022,04,27,08,29,37.40
2022,04,27,08,30,37.40
2022,04,27,08,31,37.50
2022,04,27,08,32,37.60
2022,04,27,08,33,37.70
2022,04,27,08,34,37.70
2022,04,27,08,35,37.80
2022,04,27,08,36,37.90
2022,04,27,08,37,37.90
2022,04,27,08,38,38.00
2022,04,27,08,39,38.00
2022,04,27,08,40,38.00
2022,04,27,08,41,38.00
2022,04,27,08,42,38.10
2022,04,27,08,43,38.10
2022,04,27,08,44,38.10
2022,04,27,08,45,38.10
2022,04,27,08,46,38.20
2022,04,27,08,47,38.20
2022,04,27,08,48,38.30
2022,04,27,08,49,38.30
2022,04,27,08,50,38.30
2022,04,27,08,51,38.30
2022,04,27,08,52,38.30
2022,04,27,08,53,38.30
2022,04,27,08,54,38.30
2022,04,27,08,55,38.40
2022,04,27,08,56,38.50
2022,04,27,08,57,38.60
2022,04,27,08,58,38.70
2022,04,27,08,59,38.80
2022,04,27,09,00,38.80
2022,04,27,09,01,38.80
2022,04,27,09,02,38.90
2022,04,27,09,03,39.00
2022,04,27,09,04,39.10
2022,04,27,09,05,39.20
2022,04,27,09,06,39.30
2022,04,27,09,07,39.30
2022,04,27,09,08,39.30
2022,04,27,09,09,39.30
2022,04,27,09,10,39.40
2022,04,27,09,11,39.40
2022,04,27,09,12,39.40
2022,04,27,09,13,39.50
2022,04,27,09,14,39.50
2022,04,27,09,15,39.70
2022,04,27,09,16,39.80
2022,04,27,09,17,40.00
2022,04,27,09,18,40.10
2022,04,27,09,19,40.20
2022,04,27,09,20,40.10
2022,04,27,09,21,40.10
2022,04,27,09,22,40.10
2022,04,27,09,23,40.10
2022,04,27,09,24,40.10
2022,04,27,09,25,40.10
2022,04,27,09,26,40.10
2022,04,27,09,27,40.10
2022,04,27,09,28,40.20
2022,04,27,09,29,40.20
2022,04,27,09,30,40.20
2022,04,27,09,31,40.20
2022,04,27,09,32,40.30
2022,04,27,09,33,40.30
2022,04,27,09,34,40.40
2022,04,27,09,35,40.40
2022,04,27,09,36,40.40
2022,04,27,09,37,40.50
2022,04,27,09,38,40.50
2022,04,27,09,39,40.60
2022,04,27,09,40,40.60
2022,04,27,09,41,40.60
2022,04,27,09,42,40.70
2022,04,27,09,43,40.70
2022,04,27,09,44,40.80
2022,04,27,09,45,40.90
2022,04,27,09,46,41.00
2022,04,27,09,47,41.10
2022,04,27,09,48,41.10
2022,04,27,09,49,41.10
2022,04,27,09,50,41.10
2022,04,27,09,51,41.10
2022,04,27,09,52,41.10
2022,04,27,09,53,41.10
2022,04,27,09,54,41.10
2022,04,27,09,55,41.10
2022,04,27,09,56,41.00
2022,04,27,09,57,41.00
2022,04,27,09,58,41.20
2022,04,27,09,59,41.40
2022,04,27,10,00,41.40
2022,04,27,10,01,41.50
2022,04,27,10,02,41.50
2022,04,27,10,03,41.40
2022,04,27,10,04,41.40
2022,04,27,10,05,41.40
2022,04,27,10,06,41.40
2022,04,27,10,07,41.30
2022,04,27,10,08,41.20
2022,04,27,10,09,41.20
2022,04,27,10,10,41.30
2022,04,27,10,11,41.40
2022,04,27,10,12,41.50
2022,04,27,10,13,41.90
2022,04,27,10,14,42.00
2022,04,27,10,15,41.90
2022,04,27,10,16,41.80
2022,04,27,10,17,41.80
2022,04,27,10,18,41.80
2022,04,27,10,19,41.90
2022,04,27,10,20,41.90
2022,04,27,10,21,42.00
2022,04,27,10,22,42.10
2022,04,27,10,23,42.20
2022,04,27,10,24,42.20
2022,04,27,10,25,42.20
2022,04,27,10,26,42.20
2022,04,27,10,27,42.20
2022,04,27,10,28,42.20
2022,04,27,10,29,42.10
2022,04,27,10,30,41.90
2022,04,27,10,31,41.70
2022,04,27,10,32,41.50
2022,04,27,10,33,41.40
2022,04,27,10,34,41.40
2022,04,27,10,35,41.30
2022,04,27,10,36,41.10
2022,04,27,10,37,41.00
2022,04,27,10,38,40.80
2022,04,27,10,39,40.80
2022,04,27,10,40,40.70
2022,04,27,10,41,40.60
2022,04,27,10,42,40.50
2022,04,27,10,43,40.40
2022,04,27,10,44,40.30
2022,04,27,10,45,40.30
2022,04,27,10,46,40.30
2022,04,27,10,47,40.30
2022,04,27,10,48,40.20
2022,04,27,10,49,40.10
2022,04,27,10,50,40.10
2022,04,27,10,51,40.00
2022,04,27,10,52,39.90
2022,04,27,10,53,39.80
2022,04,27,10,54,39.80
2022,04,27,10,55,39.70
2022,04,27,10,56,39.70
2022,04,27,10,57,39.60
2022,04,27,10,58,39.60
2022,04,27,10,59,39.70
2022,04,27,11,00,39.80
2022,04,27,11,01,40.00
2022,04,27,11,02,40.20
2022,04,27,11,03,40.40
2022,04,27,11,04,40.60
2022,04,27,11,05,40.80
2022,04,27,11,06,41.00
2022,04,27,11,07,41.20
2022,04,27,11,08,41.30
2022,04,27,11,09,41.50
2022,04,27,11,10,41.60
2022,04,27,11,11,41.60
2022,04,27,11,12,41.60
2022,04,27,11,13,41.60
2022,04,27,11,14,41.50
2022,04,27,11,15,41.40
2022,04,27,11,16,41.40
2022,04,27,11,17,41.30
2022,04,27,11,18,41.30
2022,04,27,11,19,41.30
2022,04,27,11,20,41.30
2022,04,27,11,21,41.30
2022,04,27,11,22,41.30
2022,04,27,11,23,41.30
2022,04,27,11,24,41.20
2022,04,27,11,25,41.00
2022,04,27,11,26,40.90
2022,04,27,11,27,40.70
2022,04,27,11,28,40.50
2022,04,27,11,29,40.30
2022,04,27,11,30,40.10
2022,04,27,11,31,40.00
2022,04,27,11,32,39.80
2022,04,27,11,33,39.70
2022,04,27,11,34,39.60
2022,04,27,11,35,39.60
2022,04,27,11,36,39.50
2022,04,27,11,37,39.50
2022,04,27,11,38,39.50
2022,04,27,11,39,39.50
2022,04,27,11,40,39.60
2022,04,27,11,41,39.60
2022,04,27,11,42,39.70
2022,04,27,11,43,39.80
2022,04,27,11,44,39.80
2022,04,27,11,45,39.80
2022,04,27,11,46,39.80
2022,04,27,11,47,39.80
2022,04,27,11,48,39.70
2022,04,27,11,49,39.70
2022,04,27,11,50,39.80
2022,04,27,11,51,39.80
2022,04,27,11,52,39.80
2022,04,27,11,53,39.70
2022,04,27,11,54,39.70
2022,04,27,11,55,39.60
2022,04,27,11,56,39.60
2022,04,27,11,57,39.60
2022,04,27,11,58,39.60
2022,04,27,11,59,39.60
2022,04,27,12,00,39.60
2022,04,27,12,01,39.60
2022,04,27,12,02,39.70
2022,04,27,12,03,39.70
2022,04,27,12,04,39.70
2022,04,27,12,05,39.80
2022,04,27,12,06,39.80
2022,04,27,12,07,39.90
2022,04,27,12,08,39.90
2022,04,27,12,09,40.00
2022,04,27,12,10,40.10
2022,04,27,12,11,40.20
2022,04,27,12,12,40.30
2022,04,27,12,13,40.40
2022,04,27,12,14,40.50
2022,04,27,12,15,40.60
2022,04,27,12,16,40.60
2022,04,27,12,17,40.70
2022,04,27,12,18,40.70
2022,04,27,12,19,40.70
2022,04,27,12,20,40.70
2022,04,27,12,21,40.70
2022,04,27,12,22,40.60
2022,04,27,12,23,40.50
2022,04,27,12,24,40.50
2022,04,27,12,25,40.40
2022,04,27,12,26,40.30
2022,04,27,12,27,40.30
2022,04,27,12,28,40.30
2022,04,27,12,29,40.30
2022,04,27,12,30,40.30
2022,04,27,12,31,40.20
2022,04,27,12,32,40.20
2022,04,27,12,33,40.20
2022,04,27,12,34,40.20
2022,04,27,12,35,40.10
2022,04,27,12,36,40.20
2022,04,27,12,37,40.20
2022,04,27,12,38,40.20
2022,04,27,12,39,40.20
2022,04,27,12,40,40.20
2022,04,27,12,41,40.30
2022,04,27,12,42,40.30
2022,04,27,12,43,40.20
2022,04,27,12,44,40.20
2022,04,27,12,45,40.30
2022,04,27,12,46,40.30
2022,04,27,12,47,40.30
2022,04,27,12,48,40.40
2022,04,27,12,49,40.40
2022,04,27,12,50,40.50
2022,04,27,12,51,40.60
2022,04,27,12,52,40.60
2022,04,27,12,53,40.70
2022,04,27,12,54,40.70
2022,04,27,12,55,40.70
2022,04,27,12,56,40.80
2022,04,27,12,57,40.80
2022,04,27,12,58,40.80
2022,04,27,12,59,40.80
2022,04,27,13,00,40.70
2022,04,27,13,01,40.80
2022,04,27,13,02,40.70
2022,04,27,13,03,40.70
2022,04,27,13,04,40.70
2022,04,27,13,05,40.70
2022,04,27,13,06,40.70
2022,04,27,13,07,40.60
2022,04,27,13,08,40.60
2022,04,27,13,09,40.60
2022,04,27,13,10,40.60
2022,04,27,13,11,40.60
2022,04,27,13,12,40.60
2022,04,27,13,13,40.60
2022,04,27,13,14,40.70
2022,04,27,13,15,40.70
2022,04,27,13,16,40.70
2022,04,27,13,17,40.70
2022,04,27,13,18,40.70
2022,04,27,13,19,40.70
2022,04,27,13,20,40.60
2022,04,27,13,21,40.40
2022,04,27,13,22,40.30
2022,04,27,13,23,40.20
2022,04,27,13,24,40.10
2022,04,27,13,25,39.90
2022,04,27,13,26,39.60
2022,04,27,13,27,39.30
2022,04,27,13,28,39.10
2022,04,27,13,29,38.90
2022,04,27,13,30,38.70
2022,04,27,13,31,38.60
2022,04,27,13,32,38.40
2022,04,27,13,33,38.30
2022,04,27,13,34,38.20
2022,04,27,13,35,38.30
2022,04,27,13,36,38.30
2022,04,27,13,37,38.20
2022,04,27,13,38,38.30
2022,04,27,13,39,38.30
2022,04,27,13,40,38.30
2022,04,27,13,41,38.40
2022,04,27,13,42,38.50
2022,04,27,13,43,38.60
2022,04,27,13,44,38.60
2022,04,27,13,45,38.50
2022,04,27,13,46,38.40
2022,04,27,13,47,38.20
2022,04,27,13,48,38.00
2022,04,27,13,49,37.90
2022,04,27,13,50,37.80
2022,04,27,13,51,37.90
2022,04,27,13,52,37.90
2022,04,27,13,53,38.10
2022,04,27,13,54,38.20
2022,04,27,13,55,38.20
2022,04,27,13,56,38.30
2022,04,27,13,57,38.70
2022,04,27,13,58,39.00
2022,04,27,13,59,39.30
2022,04,27,14,00,39.30
2022,04,27,14,01,39.20
2022,04,27,14,02,39.20
2022,04,27,14,03,39.20
2022,04,27,14,04,39.00
2022,04,27,14,05,39.10
2022,04,27,14,06,39.50
2022,04,27,14,07,39.90
2022,04,27,14,08,40.20
2022,04,27,14,09,40.40
2022,04,27,14,10,40.40
2022,04,27,14,11,40.40
2022,04,27,14,12,40.30
2022,04,27,14,13,40.50
2022,04,27,14,14,40.70
2022,04,27,14,15,40.90
2022,04,27,14,16,41.10
2022,04,27,14,17,41.20
2022,04,27,14,18,41.20
2022,04,27,14,19,41.20
2022,04,27,14,20,41.20
2022,04,27,14,21,41.10
2022,04,27,14,22,41.10
2022,04,27,14,23,41.20
2022,04,27,14,24,41.40
2022,04,27,14,25,41.60
2022,04,27,14,26,41.70
2022,04,27,14,27,41.60
2022,04,27,14,28,41.50
2022,04,27,14,29,41.40
2022,04,27,14,30,41.40
2022,04,27,14,31,41.60
2022,04,27,14,32,41.70
2022,04,27,14,33,41.70
2022,04,27,14,34,41.40
2022,04,27,14,35,41.20
2022,04,27,14,36,41.10
2022,04,27,14,37,41.10
2022,04,27,14,38,41.20
2022,04,27,14,39,41.30
2022,04,27,14,40,41.50
2022,04,27,14,41,41.70
2022,04,27,14,42,41.80
2022,04,27,14,43,41.90
2022,04,27,14,44,42.10
2022,04,27,14,45,42.30
2022,04,27,14,46,42.50
2022,04,27,14,47,42.60
2022,04,27,14,48,42.80
2022,04,27,14,49,42.90
2022,04,27,14,50,42.90
2022,04,27,14,51,43.10
2022,04,27,14,52,43.20
2022,04,27,14,53,43.10
2022,04,27,14,54,43.10
2022,04,27,14,55,43.10
2022,04,27,14,56,43.00
2022,04,27,14,57,42.90
2022,04,27,14,58,42.90
2022,04,27,14,59,42.90
2022,04,27,15,00,42.90
2022,04,27,15,01,42.90
2022,04,27,15,02,42.70
2022,04,27,15,03,42.60
2022,04,27,15,04,42.40
2022,04,27,15,05,42.30
2022,04,27,15,06,42.10
2022,04,27,15,07,41.90
2022,04,27,15,08,41.90
2022,04,27,15,09,41.90
2022,04,27,15,10,41.90
2022,04,27,15,11,42.00
2022,04,27,15,12,42.10
2022,04,27,15,13,42.20
2022,04,27,15,14,42.30
2022,04,27,15,15,42.30
2022,04,27,15,16,42.30
2022,04,27,15,17,42.30
2022,04,27,15,18,42.30
2022,04,27,15,19,42.40
2022,04,27,15,20,42.60
2022,04,27,15,21,42.60
2022,04,27,15,22,42.80
2022,04,27,15,23,42.80
2022,04,27,15,24,42.90
2022,04,27,15,25,42.90
2022,04,27,15,26,43.00
2022,04,27,15,27,43.10
2022,04,27,15,28,43.10
2022,04,27,15,29,43.10
2022,04,27,15,30,43.10
2022,04,27,15,31,43.00
2022,04,27,15,32,43.00
2022,04,27,15,33,42.90
2022,04,27,15,34,42.90
2022,04,27,15,35,42.90
2022,04,27,15,36,42.90
2022,04,27,15,37,43.00
2022,04,27,15,38,43.00
2022,04,27,15,39,43.00
2022,04,27,15,40,43.00
2022,04,27,15,41,43.00
2022,04,27,15,42,43.10
2022,04,27,15,43,43.10
2022,04,27,15,44,43.10
2022,04,27,15,45,43.10
2022,04,27,15,46,43.00
2022,04,27,15,47,42.90
2022,04,27,15,48,42.80
2022,04,27,15,49,42.70
2022,04,27,15,50,42.70
2022,04,27,15,51,42.70
2022,04,27,15,52,42.80
2022,04,27,15,53,42.90
2022,04,27,15,54,43.00
2022,04,27,15,55,43.10
2022,04,27,15,56,43.20
2022,04,27,15,57,43.30
2022,04,27,15,58,43.40
2022,04,27,15,59,43.50
2022,04,27,16,00,43.40
2022,04,27,16,01,43.40
2022,04,27,16,02,43.40
2022,04,27,16,03,43.40
2022,04,27,16,04,43.40
2022,04,27,16,05,43.30
2022,04,27,16,06,43.20
2022,04,27,16,07,43.10
2022,04,27,16,08,43.00
2022,04,27,16,09,42.90
2022,04,27,16,10,42.80
2022,04,27,16,11,42.60
2022,04,27,16,12,42.60
2022,04,27,16,13,42.40
2022,04,27,16,14,42.30
2022,04,27,16,15,42.20
2022,04,27,16,16,42.20
2022,04,27,16,17,42.10
2022,04,27,16,18,42.00
2022,04,27,16,19,41.90
2022,04,27,16,20,41.90
2022,04,27,16,21,41.80
2022,04,27,16,22,41.70
2022,04,27,16,23,41.80
2022,04,27,16,24,41.80
2022,04,27,16,25,41.80
2022,04,27,16,26,41.90
2022,04,27,16,27,41.90
2022,04,27,16,28,41.90
2022,04,27,16,29,41.90
2022,04,27,16,30,41.90
2022,04,27,16,31,41.90
2022,04,27,16,32,41.90
2022,04,27,16,33,41.90
2022,04,27,16,34,41.90
2022,04,27,16,35,42.00
2022,04,27,16,36,42.10
2022,04,27,16,37,42.20
2022,04,27,16,38,42.30
2022,04,27,16,39,42.30
2022,04,27,16,40,42.30
2022,04,27,16,41,42.30
2022,04,27,16,42,42.20
2022,04,27,16,43,42.10
2022,04,27,16,44,42.00
2022,04,27,16,45,42.00
2022,04,27,16,46,42.00
2022,04,27,16,47,41.90
2022,04,27,16,48,41.90
2022,04,27,16,49,41.80
2022,04,27,16,50,41.80
2022,04,27,16,51,41.80
2022,04,27,16,52,41.70
2022,04,27,16,53,41.80
2022,04,27,16,54,41.80
2022,04,27,16,55,41.80
2022,04,27,16,56,41.80
2022,04,27,16,57,41.70
2022,04,27,16,58,41.70
2022,04,27,16,59,41.60
2022,04,27,17,00,41.60
2022,04,27,17,01,41.60
2022,04,27,17,02,41.60
2022,04,27,17,03,41.60
2022,04,27,17,04,41.60
2022,04,27,17,05,41.50
2022,04,27,17,06,41.50
2022,04,27,17,07,41.50
2022,04,27,17,08,41.50
2022,04,27,17,09,41.50
2022,04,27,17,10,41.40
2022,04,27,17,11,41.40
2022,04,27,17,12,41.40
2022,04,27,17,13,41.40
2022,04,27,17,14,41.50
2022,04,27,17,15,41.60
2022,04,27,17,16,41.60
2022,04,27,17,17,41.60
2022,04,27,17,18,41.50
2022,04,27,17,19,41.40